Kankakee, IL

9:38 AM CDT on April 24, 2017 (GMT -0500)
Greater Kankakee

Weather History for KIKK - April, 2014

Change the Weather History Date:

Friday, April 11, 2014

  Actual Average Record
Temperature  
Mean Temperature 51 °F -  
Max Temperature 68 °F 57 °F 83 °F (1977)
Min Temperature 34 °F 33 °F 20 °F (1989)
Degree Days  
Heating Degree Days 14    
Growing Degree Days 1 (Base 50)    
Moisture  
Dew Point 33 °F    
Average Humidity 52    
Maximum Humidity 87    
Minimum Humidity 22    
Precipitation  
Precipitation 0.00 in - - ()
Sea Level Pressure  
Sea Level Pressure 30.02 in    
Wind  
Wind Speed 4 mph (WSW)    
Max Wind Speed 10 mph    
Max Gust Speed -    
Visibility 10 miles    
Events Thunderstorm    
Averages and records for this station are not official NWS values.
T = Trace of Precipitation, MM = Missing Value Source: NWS Daily Summary

Daily Weather History Graph

Daily Weather History Graph

Search for Another Location

Airport or City:

Trip Planner

Search our weather history database for the weather conditions in past years. The results will help you decide how hot, cold, wet, or windy it might be!

Date:

Astronomy

Apr. 11, 2014 Rise Set
Actual Time 6:18 AM CDT 7:27 PM CDT
Civil Twilight 5:50 AM CDT 7:55 PM CDT
Nautical Twilight 5:16 AM CDT 8:29 PM CDT
Astronomical Twilight 4:41 AM CDT 9:04 PM CDT
Moon 4:05 PM CDT (4/11) 4:15 AM CDT (4/11)
Length of Visible Light 14h 05m
Length of Day
13h 08m
Waxing Gibbous, 87% of the Moon is Illuminated
Apr 11
Waxing Gibbous
Apr 15
Full
Apr 22
Last Quarter
Apr 29
New
May 6
First Quarter

Hourly Weather History & Observations

Time (CDT) Temp. Windchill Dew Point Humidity Pressure Visibility Wind Dir Wind Speed Gust Speed Precip Events Conditions
12:15 AM 43.3 °F - 34.5 °F 71% 29.96 in 10.0 mi Calm Calm - N/A   Unknown
12:35 AM 40.6 °F 36.7 °F 34.9 °F 80% 29.97 in 10.0 mi West 5.8 mph - N/A   Unknown
12:55 AM 42.4 °F 39.6 °F 34.9 °F 75% 29.97 in 10.0 mi WSW 4.6 mph - N/A   Unknown
1:15 AM 41.9 °F 38.2 °F 34.9 °F 76% 29.97 in 10.0 mi West 5.8 mph - N/A   Unknown
1:35 AM 42.1 °F 37.1 °F 34.3 °F 74% 29.99 in 10.0 mi West 8.1 mph - N/A Thunderstorm Unknown
1:55 AM 41.5 °F 37.8 °F 34.0 °F 75% 29.98 in 10.0 mi West 5.8 mph - N/A   Unknown
2:15 AM 40.6 °F 36.0 °F 34.0 °F 77% 29.98 in 10.0 mi West 6.9 mph - N/A   Unknown
2:35 AM 41.0 °F 36.4 °F 32.9 °F 73% 29.98 in 10.0 mi West 6.9 mph - N/A   Unknown
2:55 AM 39.7 °F 35.6 °F 32.9 °F 77% 29.99 in 10.0 mi West 5.8 mph - N/A   Unknown
3:15 AM 40.1 °F 35.3 °F 32.5 °F 74% 29.97 in 10.0 mi WNW 6.9 mph - N/A   Unknown
3:35 AM 42.1 °F 38.4 °F 31.8 °F 67% 29.97 in 10.0 mi WNW 5.8 mph - N/A   Unknown
3:55 AM 38.5 °F 36.1 °F 31.6 °F 76% 29.99 in 10.0 mi SSW 3.5 mph - N/A   Unknown
4:15 AM 38.3 °F - 31.8 °F 77% 29.97 in 10.0 mi Calm Calm - N/A   Unknown
4:35 AM 36.7 °F - 31.5 °F 81% 29.98 in 10.0 mi Calm Calm - N/A   Unknown
4:55 AM 35.4 °F - 31.1 °F 84% 29.99 in 10.0 mi Calm Calm - N/A   Unknown
5:15 AM 35.2 °F 29.5 °F 31.5 °F 86% 30.00 in 10.0 mi West 6.9 mph - N/A   Unknown
5:35 AM 34.9 °F 29.9 °F 31.1 °F 86% 30.01 in 10.0 mi West 5.8 mph - N/A   Unknown
5:55 AM 35.2 °F 31.2 °F 31.1 °F 85% 30.01 in 10.0 mi West 4.6 mph - N/A   Unknown
6:15 AM 35.6 °F 32.8 °F 32.0 °F 87% 30.01 in 10.0 mi West 3.5 mph - N/A   Unknown
6:35 AM 34.9 °F 32.0 °F 31.1 °F 86% 30.02 in 10.0 mi West 3.5 mph - N/A   Unknown
6:55 AM 35.6 °F 32.8 °F 31.8 °F 86% 30.03 in 10.0 mi West 3.5 mph - N/A   Unknown
7:15 AM 35.8 °F 33.0 °F 32.0 °F 86% 30.03 in 10.0 mi WSW 3.5 mph - N/A   Unknown
7:35 AM 36.7 °F - 32.9 °F 86% 30.03 in 10.0 mi Calm Calm - N/A   Unknown
7:55 AM 40.3 °F 37.1 °F 34.0 °F 78% 30.05 in 10.0 mi West 4.6 mph - N/A   Unknown
8:15 AM 42.8 °F 40.1 °F 36.1 °F 77% 30.05 in 10.0 mi West 4.6 mph - N/A   Unknown
8:35 AM 46.4 °F 44.3 °F 36.5 °F 68% 30.05 in 10.0 mi WNW 4.6 mph - N/A   Unknown
8:55 AM 48.2 °F - 35.6 °F 62% 30.06 in 10.0 mi NW 3.5 mph - N/A   Unknown
9:15 AM 50.9 °F - 36.0 °F 57% 30.06 in 10.0 mi Calm Calm - N/A   Unknown
9:35 AM 53.4 °F - 35.4 °F 51% 30.06 in 10.0 mi WNW 3.5 mph - N/A   Unknown
9:55 AM 54.9 °F - 33.8 °F 45% 30.06 in 10.0 mi Calm Calm - N/A   Unknown
10:15 AM 57.0 °F - 35.8 °F 45% 30.06 in 10.0 mi Calm Calm - N/A   Unknown
10:35 AM 58.1 °F - 35.2 °F 42% 30.06 in 10.0 mi Calm Calm - N/A   Unknown
10:55 AM 59.0 °F - 34.2 °F 39% 30.06 in 10.0 mi Calm Calm - N/A   Unknown
11:15 AM 59.7 °F - 33.6 °F 37% 30.06 in 10.0 mi SSE 3.5 mph - N/A   Unknown
11:35 AM 61.0 °F - 34.2 °F 37% 30.05 in 10.0 mi Calm Calm - N/A   Unknown
11:55 AM 62.8 °F - 32.9 °F 33% 30.05 in 10.0 mi SSW 3.5 mph - N/A   Unknown
12:15 PM 63.3 °F - 29.8 °F 28% 30.05 in 10.0 mi West 6.9 mph - N/A   Unknown
12:35 PM 63.1 °F - 31.3 °F 30% 30.05 in 10.0 mi Calm Calm - N/A   Unknown
12:55 PM 64.4 °F - 32.2 °F 30% 30.05 in 10.0 mi Calm Calm - N/A   Unknown
1:15 PM 64.6 °F - 31.6 °F 29% 30.04 in 10.0 mi Calm Calm - N/A   Unknown
1:35 PM 64.8 °F - 29.8 °F 27% 30.03 in 10.0 mi Calm Calm - N/A   Unknown
1:55 PM 66.0 °F - 32.0 °F 28% 30.03 in 10.0 mi WSW 10.4 mph - N/A   Unknown
2:15 PM 66.0 °F - 29.5 °F 25% 30.03 in 10.0 mi WSW 6.9 mph - N/A   Unknown
2:35 PM 66.9 °F - 30.7 °F 26% 30.02 in 10.0 mi SSW 4.6 mph - N/A   Unknown
2:55 PM 66.7 °F - 28.8 °F 24% 30.02 in 10.0 mi SSW 4.6 mph - N/A   Unknown
3:15 PM 67.8 °F - 30.6 °F 25% 30.01 in 10.0 mi WSW 8.1 mph - N/A   Unknown
3:35 PM 67.3 °F - 27.9 °F 23% 30.00 in 10.0 mi West 5.8 mph - N/A   Unknown
3:55 PM 67.8 °F - 29.3 °F 24% 30.01 in 10.0 mi West 9.2 mph - N/A   Unknown
4:15 PM 67.8 °F - 30.6 °F 25% 30.01 in 10.0 mi WSW 6.9 mph - N/A   Unknown
4:35 PM 68.5 °F - 28.6 °F 22% 30.01 in 10.0 mi West 8.1 mph - N/A   Unknown
4:55 PM 68.2 °F - 28.4 °F 23% 30.00 in 10.0 mi WSW 10.4 mph - N/A   Unknown
5:15 PM 68.5 °F - 29.7 °F 23% 30.00 in 10.0 mi WSW 9.2 mph - N/A   Unknown
5:35 PM 68.2 °F - 30.2 °F 24% 30.00 in 10.0 mi WSW 9.2 mph - N/A   Unknown
5:55 PM 67.8 °F - 30.9 °F 25% 30.01 in 10.0 mi WSW 8.1 mph - N/A   Unknown
6:15 PM 67.3 °F - 30.0 °F 25% 30.01 in 10.0 mi West 6.9 mph - N/A   Unknown
6:35 PM 66.2 °F - 32.7 °F 29% 30.00 in 10.0 mi SW 4.6 mph - N/A   Unknown
6:55 PM 64.4 °F - 33.3 °F 31% 30.00 in 10.0 mi SW 5.8 mph - N/A   Unknown
7:15 PM 62.4 °F - 36.0 °F 37% 30.00 in 10.0 mi SW 5.8 mph - N/A   Unknown
7:35 PM 59.5 °F - 38.5 °F 46% 30.00 in 10.0 mi SSW 5.8 mph - N/A   Unknown
7:55 PM 56.8 °F - 37.9 °F 49% 30.00 in 10.0 mi SSW 5.8 mph - N/A   Unknown
8:15 PM 54.5 °F - 35.1 °F 48% 30.01 in 10.0 mi South 5.8 mph - N/A   Unknown
8:35 PM 53.8 °F - 36.1 °F 51% 30.02 in 10.0 mi South 5.8 mph - N/A   Unknown
8:55 PM 53.2 °F - 36.0 °F 52% 30.02 in 10.0 mi South 5.8 mph - N/A   Unknown
9:15 PM 52.3 °F - 35.8 °F 53% 30.03 in 10.0 mi South 5.8 mph - N/A   Unknown
9:35 PM 54.0 °F - 33.4 °F 46% 30.02 in 10.0 mi South 5.8 mph - N/A   Unknown
9:55 PM 51.3 °F - 35.6 °F 55% 30.02 in 10.0 mi South 4.6 mph - N/A   Unknown
10:15 PM 53.8 °F - 33.3 °F 46% 30.02 in 10.0 mi South 9.2 mph - N/A   Unknown
10:35 PM 53.4 °F - 33.1 °F 46% 30.02 in 10.0 mi South 8.1 mph - N/A   Unknown
10:55 PM 54.3 °F - 32.5 °F 44% 30.02 in 10.0 mi South 9.2 mph - N/A   Unknown
11:15 PM 53.6 °F - 32.4 °F 44% 30.02 in 10.0 mi South 8.1 mph - N/A   Unknown
11:35 PM 52.7 °F - 33.3 °F 48% 30.02 in 10.0 mi South 8.1 mph - N/A   Unknown
11:55 PM 52.9 °F - 33.1 °F 47% 30.03 in 10.0 mi South 9.2 mph - N/A   Unknown